Time,TemperatureF,DewpointF,PressureIn,WindDirection,WindDirectionDegrees,WindSpeedMPH,WindSpeedGustMPH,Humidity,HourlyPrecipIn,Conditions,Clouds,dailyrainin,SoftwareType,DateUTC
2013-10-15 00:14:00,37.0,35.0,30.40,NE,53,0.0,-999.0,92,-99.99,,,-99.99,,2013-10-15 04:14:00,
2013-10-15 00:24:00,37.0,35.0,30.40,NE,53,0.0,-999.0,92,-99.99,,,-99.99,,2013-10-15 04:24:00,
2013-10-15 00:43:00,36.0,34.0,30.40,NE,53,0.0,-999.0,93,-99.99,,,-99.99,,2013-10-15 04:43:00,
2013-10-15 00:54:00,35.0,33.0,30.40,NE,53,0.0,-999.0,92,-99.99,,,-99.99,,2013-10-15 04:54:00,
2013-10-15 01:13:00,35.0,33.0,30.40,NE,53,0.0,-999.0,93,-99.99,,,-99.99,,2013-10-15 05:13:00,
2013-10-15 01:22:00,35.0,33.0,30.38,NE,53,0.0,-999.0,93,-99.99,,,-99.99,,2013-10-15 05:22:00,
2013-10-15 01:42:00,34.0,32.0,30.39,NE,53,0.0,-999.0,93,-99.99,,,-99.99,,2013-10-15 05:42:00,
2013-10-15 01:53:00,34.0,32.0,30.39,NE,53,0.0,-999.0,93,-99.99,,,-99.99,,2013-10-15 05:53:00,
2013-10-15 02:12:00,34.0,32.0,30.38,NE,53,0.0,-999.0,93,-99.99,,,-99.99,,2013-10-15 06:12:00,
2013-10-15 02:22:00,33.0,31.0,30.38,NE,53,0.0,-999.0,93,-99.99,,,-99.99,,2013-10-15 06:22:00,
2013-10-15 02:43:00,32.0,30.0,30.37,NE,53,0.0,-999.0,93,-99.99,,,-99.99,,2013-10-15 06:43:00,
2013-10-15 02:52:00,33.0,31.0,30.37,NE,53,0.0,-999.0,94,-99.99,,,-99.99,,2013-10-15 06:52:00,
2013-10-15 03:12:00,32.0,30.0,30.36,NE,53,0.0,-999.0,94,-99.99,,,-99.99,,2013-10-15 07:12:00,
2013-10-15 03:22:00,32.0,30.0,30.36,NE,53,0.0,-999.0,94,-99.99,,,-99.99,,2013-10-15 07:22:00,
2013-10-15 03:42:00,32.0,30.0,30.35,NE,53,0.0,-999.0,94,-99.99,,,-99.99,,2013-10-15 07:42:00,
2013-10-15 03:53:00,32.0,30.0,30.35,NE,53,0.0,-999.0,94,-99.99,,,-99.99,,2013-10-15 07:53:00,
2013-10-15 04:12:00,32.0,30.0,30.34,NE,53,0.0,-999.0,94,-99.99,,,-99.99,,2013-10-15 08:12:00,
2013-10-15 04:22:00,31.0,29.0,30.35,NE,53,0.0,-999.0,94,-99.99,,,-99.99,,2013-10-15 08:22:00,
2013-10-15 04:42:00,31.0,29.0,30.34,NE,53,0.0,-999.0,94,-99.99,,,-99.99,,2013-10-15 08:42:00,
2013-10-15 04:52:00,32.0,30.0,30.35,NE,53,0.0,-999.0,94,-99.99,,,-99.99,,2013-10-15 08:52:00,
2013-10-15 05:12:00,32.0,30.0,30.33,NE,53,0.0,-999.0,94,-99.99,,,-99.99,,2013-10-15 09:12:00,
2013-10-15 05:22:00,32.0,30.0,30.32,NE,53,0.0,-999.0,94,-99.99,,,-99.99,,2013-10-15 09:22:00,
2013-10-15 05:43:00,32.0,30.0,30.32,NE,53,0.0,-999.0,94,-99.99,,,-99.99,,2013-10-15 09:43:00,
2013-10-15 05:53:00,32.0,31.0,30.32,NE,53,0.0,-999.0,95,-99.99,,,-99.99,,2013-10-15 09:53:00,
2013-10-15 06:13:00,32.0,31.0,30.32,NE,53,0.0,-999.0,95,-99.99,,,-99.99,,2013-10-15 10:13:00,
2013-10-15 06:23:00,32.0,31.0,30.32,NE,53,0.0,-999.0,95,-99.99,,,-99.99,,2013-10-15 10:23:00,
2013-10-15 06:43:00,32.0,31.0,30.32,NE,53,0.0,-999.0,95,-99.99,,,-99.99,,2013-10-15 10:43:00,
2013-10-15 06:53:00,32.0,31.0,30.32,NE,53,0.0,-999.0,95,-99.99,,,-99.99,,2013-10-15 10:53:00,
2013-10-15 07:12:00,33.0,32.0,30.32,NE,53,0.0,-999.0,95,-99.99,,,-99.99,,2013-10-15 11:12:00,
2013-10-15 07:22:00,35.0,34.0,30.31,NE,53,0.0,-999.0,95,-99.99,,,-99.99,,2013-10-15 11:22:00,
2013-10-15 07:42:00,35.0,34.0,30.30,NE,53,1.0,-999.0,95,-99.99,,,-99.99,,2013-10-15 11:42:00,
2013-10-15 07:53:00,35.0,34.0,30.29,NE,53,0.0,-999.0,95,-99.99,,,-99.99,,2013-10-15 11:53:00,
2013-10-15 08:12:00,34.0,33.0,30.29,NE,53,0.0,-999.0,95,-99.99,,,-99.99,,2013-10-15 12:12:00,
2013-10-15 08:22:00,34.0,33.0,30.28,NE,53,0.0,-999.0,95,-99.99,,,-99.99,,2013-10-15 12:22:00,
2013-10-15 08:42:00,37.0,36.0,30.27,NE,55,0.0,-999.0,96,-99.99,,,-99.99,,2013-10-15 12:42:00,
2013-10-15 08:52:00,38.0,37.0,30.27,NE,55,0.0,-999.0,96,-99.99,,,-99.99,,2013-10-15 12:52:00,
2013-10-15 09:11:00,38.0,37.0,30.26,NE,55,0.0,-999.0,96,-99.99,,,-99.99,,2013-10-15 13:11:00,
2013-10-15 09:21:00,41.0,40.0,30.26,NE,55,1.0,-999.0,96,-99.99,,,-99.99,,2013-10-15 13:21:00,
2013-10-15 09:42:00,43.0,42.0,30.24,East,82,2.0,-999.0,96,-99.99,,,-99.99,,2013-10-15 13:42:00,
2013-10-15 09:52:00,44.0,43.0,30.25,East,82,1.0,-999.0,97,-99.99,,,-99.99,,2013-10-15 13:52:00,
2013-10-15 10:12:00,46.0,45.0,30.25,ESE,115,3.0,-999.0,97,-99.99,,,-99.99,,2013-10-15 14:12:00,
2013-10-15 10:22:00,48.0,47.0,30.24,ESE,119,3.0,-999.0,97,-99.99,,,-99.99,,2013-10-15 14:22:00,
2013-10-15 10:32:00,48.0,47.0,30.24,ESE,119,3.0,-999.0,97,-99.99,,,-99.99,,2013-10-15 14:32:00,
2013-10-15 10:42:00,48.0,47.0,30.24,ESE,119,3.0,-999.0,97,-99.99,,,-99.99,,2013-10-15 14:42:00,
2013-10-15 10:52:00,49.0,48.0,30.23,SE,140,4.0,-999.0,96,-99.99,,,-99.99,,2013-10-15 14:52:00,
2013-10-15 11:11:00,50.0,48.0,30.22,SSE,150,5.0,-999.0,92,-99.99,,,-99.99,,2013-10-15 15:11:00,
2013-10-15 11:22:00,51.0,48.0,30.22,SE,125,4.0,-999.0,90,-99.99,,,-99.99,,2013-10-15 15:22:00,
2013-10-15 11:33:00,51.0,48.0,30.22,SE,125,4.0,-999.0,90,-99.99,,,-99.99,,2013-10-15 15:33:00,
2013-10-15 11:44:00,51.0,48.0,30.22,SE,125,4.0,-999.0,90,-99.99,,,-99.99,,2013-10-15 15:44:00,
2013-10-15 11:53:00,52.0,49.0,30.21,ESE,121,5.0,-999.0,88,-99.99,,,-99.99,,2013-10-15 15:53:00,
2013-10-15 12:13:00,53.0,49.0,30.19,SE,132,4.0,-999.0,87,-99.99,,,-99.99,,2013-10-15 16:13:00,
2013-10-15 12:23:00,53.0,49.0,30.19,SSE,157,6.0,-999.0,86,-99.99,,,-99.99,,2013-10-15 16:23:00,
2013-10-15 12:43:00,54.0,50.0,30.18,ESE,122,4.0,-999.0,85,-99.99,,,-99.99,,2013-10-15 16:43:00,
2013-10-15 12:53:00,54.0,49.0,30.17,SE,132,7.0,-999.0,84,-99.99,,,-99.99,,2013-10-15 16:53:00,
2013-10-15 13:12:00,54.0,49.0,30.17,SE,141,4.0,-999.0,84,-99.99,,,-99.99,,2013-10-15 17:12:00,
2013-10-15 13:22:00,54.0,49.0,30.14,ENE,59,5.0,-999.0,84,-99.99,,,-99.99,,2013-10-15 17:22:00,
2013-10-15 13:42:00,55.0,51.0,30.13,ESE,122,4.0,-999.0,85,-99.99,,,-99.99,,2013-10-15 17:42:00,
2013-10-15 13:53:00,55.0,50.0,30.11,ESE,123,7.0,-999.0,82,-99.99,,,-99.99,,2013-10-15 17:53:00,
2013-10-15 14:12:00,56.0,51.0,30.11,SE,144,5.0,-999.0,83,-99.99,,,-99.99,,2013-10-15 18:12:00,
2013-10-15 14:22:00,56.0,51.0,30.09,SE,134,7.0,-999.0,82,-99.99,,,-99.99,,2013-10-15 18:22:00,
2013-10-15 14:42:00,56.0,50.0,30.07,SSE,147,7.0,-999.0,81,-99.99,,,-99.99,,2013-10-15 18:42:00,
2013-10-15 14:52:00,56.0,50.0,30.06,SE,131,10.0,-999.0,80,-99.99,,,-99.99,,2013-10-15 18:52:00,
2013-10-15 15:01:00,56.0,50.0,30.06,SE,131,10.0,-999.0,80,-99.99,,,-99.99,,2013-10-15 19:01:00,
2013-10-15 15:12:00,56.0,50.0,30.06,SE,131,10.0,-999.0,80,-99.99,,,-99.99,,2013-10-15 19:12:00,
2013-10-15 15:22:00,56.0,51.0,30.06,SE,131,9.0,-999.0,82,-99.99,,,-99.99,,2013-10-15 19:22:00,
2013-10-15 15:32:00,56.0,51.0,30.06,SE,131,9.0,-999.0,82,-99.99,,,-99.99,,2013-10-15 19:32:00,
2013-10-15 15:42:00,56.0,51.0,30.06,SE,131,9.0,-999.0,82,-99.99,,,-99.99,,2013-10-15 19:42:00,
2013-10-15 15:52:00,56.0,51.0,30.06,SE,130,8.0,-999.0,83,-99.99,,,-99.99,,2013-10-15 19:52:00,
2013-10-15 16:12:00,56.0,51.0,30.05,SSE,156,8.0,-999.0,84,-99.99,,,-99.99,,2013-10-15 20:12:00,
2013-10-15 16:22:00,56.0,52.0,30.04,SSE,154,5.0,-999.0,85,-99.99,,,-99.99,,2013-10-15 20:22:00,
2013-10-15 16:42:00,57.0,52.0,30.04,SE,138,6.0,-999.0,84,-99.99,,,-99.99,,2013-10-15 20:42:00,
2013-10-15 16:52:00,57.0,51.0,30.04,SE,140,7.0,-999.0,80,-99.99,,,-99.99,,2013-10-15 20:52:00,
2013-10-15 17:13:00,57.0,51.0,30.04,SE,146,8.0,-999.0,79,-99.99,,,-99.99,,2013-10-15 21:13:00,
2013-10-15 17:22:00,56.0,49.0,30.03,SE,138,7.0,-999.0,78,-99.99,,,-99.99,,2013-10-15 21:22:00,
2013-10-15 17:44:00,56.0,49.0,30.02,SSE,149,9.0,-999.0,78,-99.99,,,-99.99,,2013-10-15 21:44:00,
2013-10-15 17:54:00,56.0,50.0,30.02,SE,144,9.0,-999.0,80,-99.99,,,-99.99,,2013-10-15 21:54:00,
2013-10-15 18:13:00,55.0,50.0,30.01,SE,130,7.0,-999.0,82,-99.99,,,-99.99,,2013-10-15 22:13:00,
2013-10-15 18:23:00,55.0,50.0,30.00,SE,136,5.0,-999.0,83,-99.99,,,-99.99,,2013-10-15 22:23:00,
2013-10-15 18:43:00,55.0,50.0,29.98,East,88,5.0,-999.0,84,-99.99,,,-99.99,,2013-10-15 22:43:00,
2013-10-15 18:53:00,54.0,51.0,29.99,SE,128,5.0,-999.0,88,-99.99,,,-99.99,,2013-10-15 22:53:00,
2013-10-15 19:12:00,53.0,50.0,29.97,ESE,105,4.0,-999.0,91,-99.99,,,-99.99,,2013-10-15 23:12:00,
2013-10-15 19:22:00,53.0,51.0,29.97,SE,132,7.0,-999.0,92,-99.99,,,-99.99,,2013-10-15 23:22:00,
2013-10-15 19:43:00,52.0,50.0,29.97,ESE,116,6.0,-999.0,92,-99.99,,,-99.99,,2013-10-15 23:43:00,
2013-10-15 19:52:00,52.0,50.0,29.97,ESE,115,6.0,-999.0,93,-99.99,,,-99.99,,2013-10-15 23:52:00,
2013-10-15 20:12:00,52.0,50.0,29.96,ESE,118,6.0,-999.0,93,-99.99,,,-99.99,,2013-10-16 00:12:00,
2013-10-15 20:22:00,52.0,50.0,29.96,East,96,6.0,-999.0,94,-99.99,,,-99.99,,2013-10-16 00:22:00,
2013-10-15 20:42:00,52.0,50.0,29.91,SSE,161,10.0,-999.0,94,-99.99,,,-99.99,,2013-10-16 00:42:00,
2013-10-15 20:52:00,52.0,51.0,29.88,SE,132,14.0,-999.0,95,-99.99,,,-99.99,,2013-10-16 00:52:00,
2013-10-15 21:11:00,52.0,51.0,29.89,ESE,118,12.0,-999.0,95,-99.99,,,-99.99,,2013-10-16 01:11:00,
2013-10-15 21:22:00,52.0,50.0,29.89,SE,136,11.0,-999.0,94,-99.99,,,-99.99,,2013-10-16 01:22:00,
2013-10-15 21:42:00,52.0,50.0,29.88,SE,126,9.0,-999.0,94,-99.99,,,-99.99,,2013-10-16 01:42:00,
2013-10-15 21:52:00,52.0,50.0,29.88,SE,135,8.0,-999.0,94,-99.99,,,-99.99,,2013-10-16 01:52:00,
2013-10-15 22:12:00,52.0,50.0,29.88,SE,128,9.0,-999.0,94,-99.99,,,-99.99,,2013-10-16 02:12:00,
2013-10-15 22:22:00,53.0,51.0,29.88,SE,132,8.0,-999.0,94,-99.99,,,-99.99,,2013-10-16 02:22:00,
2013-10-15 22:42:00,53.0,52.0,29.87,SSE,149,5.0,-999.0,95,-99.99,,,-99.99,,2013-10-16 02:42:00,
2013-10-15 22:52:00,53.0,52.0,29.87,SE,133,5.0,-999.0,95,-99.99,,,-99.99,,2013-10-16 02:52:00,
2013-10-15 23:11:00,53.0,52.0,29.86,ESE,122,7.0,-999.0,95,-99.99,,,-99.99,,2013-10-16 03:11:00,
2013-10-15 23:22:00,53.0,52.0,29.85,SE,124,4.0,-999.0,95,-99.99,,,-99.99,,2013-10-16 03:22:00,
2013-10-15 23:45:00,53.0,52.0,29.84,ESE,102,5.0,-999.0,95,-99.99,,,-99.99,,2013-10-16 03:45:00,
2013-10-15 23:55:00,53.0,52.0,29.83,East,95,4.0,-999.0,95,-99.99,,,-99.99,,2013-10-16 03:55:00,